Orbital Elements at Epoch 2459200.5 (2020-Dec-17.0) TDB
Reference: JPL 17 (heliocentric ecliptic J2000)
Element | Value | Uncertainty (1-sigma) | Units |
e | .1941608614597704 | 4.039e-08 | |
a | 3.134562853098029 | 2.3728e-08 | au |
q | 2.52595342924072 | 1.2494e-07 | au |
i | 1.815585231916302 | 4.607e-06 | deg |
node | 85.99779390274857 | 0.00015091 | deg |
peri | 349.652280314271 | 0.00015143 | deg |
M | 232.2676457074125 | 1.4917e-05 | deg |
tp | 2459919.720929351282 (2022-Dec-06.22092935) | 8.9776e-05 | TDB |
period | 2027.047383573411 5.55 | 2.3017e-05 6.302e-08 | d yr |
n | .1775982164587433 | 2.0166e-09 | deg/d |
Q | 3.743172276955339 | 2.8335e-08 | au |
|
| | Orbit Determination Parameters
Additional Information
|